YO8RXT-3 Weather Reports


time (UTC)temp
F
wind
direction
speed
knots
gust
knots
rain 1hr
in
rain 24hr
in
rain mn
in
humidity
%
barometer
mb
20260504220504 61 210 2.6 0.0 0.00 0.00 0.00 42 1015.0
20260504213503 61 190 5.2 0.0 0.00 0.00 0.00 42 1015.0
20260504210503 63 1.7 0.0 0.00 0.00 0.00 39 1015.0
20260504203504 63 1.7 0.0 0.00 0.00 0.00 39 1015.0
20260504200502 64 120 2.6 0.0 0.00 0.00 0.00 37 1015.0
20260504193502 64 0 0.0 0.0 0.00 0.00 0.00 40 1015.0
20260504190502 64 0 0.0 0.0 0.00 0.00 0.00 40 1015.0
20260504183502 70 120 4.3 0.0 0.00 0.00 0.00 33 1014.0
20260504180502 70 120 4.3 0.0 0.00 0.00 0.00 33 1014.0
20260504173502 72 1.7 0.0 0.00 0.00 0.00 31 1014.0
20260504170502 72 100 4.3 0.0 0.00 0.00 0.00 33 1014.0
20260504150503 75 60 8.7 0.0 0.00 0.00 0.00 27 1014.0
20260504140505 77 40 12.2 0.0 0.00 0.00 0.00 26 1014.0
20260504130503 77 20 11.3 0.0 0.00 0.00 0.00 26 1014.0
20260504110503 73 20 5.2 0.0 0.00 0.00 0.00 31 1015.0
20260504100503 72 1.7 0.0 0.00 0.00 0.00 36 1016.0
20260504080502 63 330 5.2 0.0 0.00 0.00 0.00 49 1016.0
20260504050503 50 240 4.3 0.0 0.00 0.00 0.00 58 1016.0
20260504043503 46 190 2.6 0.0 0.00 0.00 0.00 71 1016.0
20260504040503 46 1.7 0.0 0.00 0.00 0.00 71 1016.0
20260504033503 48 1.7 0.0 0.00 0.00 0.00 58 1016.0
20260504030502 48 1.7 0.0 0.00 0.00 0.00 58 1016.0
20260504023503 48 240 4.3 0.0 0.00 0.00 0.00 58 1016.0
20260504020503 48 1.7 0.0 0.00 0.00 0.00 54 1016.0
20260504013503 48 230 0.9 0.0 0.00 0.00 0.00 58 1016.0
20260504010503 48 0 0.0 0.0 0.00 0.00 0.00 58 1016.0
20260504003503 48 1.7 0.0 0.00 0.00 0.00 58 1017.0
20260504000502 46 1.7 0.0 0.00 0.00 0.00 66 1017.0
20260503233503 50 240 1.7 0.0 0.00 0.00 0.00 50 1017.0
20260503230503 50 270 4.3 0.0 0.00 0.00 0.00 50 1017.0
20260503223502 52 250 1.7 0.0 0.00 0.00 0.00 44 1017.0